Time,TemperatureF,DewpointF,PressureIn,WindDirection,WindDirectionDegrees,WindSpeedMPH,WindSpeedGustMPH,Humidity,HourlyPrecipIn,Conditions,Clouds,dailyrainin,SoftwareType,DateUTC
2013-03-13 00:00:00,47.0,47.0,30.03,NE,53,0.0,0.0,100,0.00,,,0.00,Wunderground v.1.12,2013-03-13 07:00:00,
2013-03-13 00:10:00,46.8,46.8,30.03,NE,53,0.0,0.0,100,0.00,,,0.00,Wunderground v.1.12,2013-03-13 07:10:00,
2013-03-13 00:20:00,46.8,46.8,30.03,NE,53,0.0,0.0,100,0.00,,,0.00,Wunderground v.1.12,2013-03-13 07:20:00,
2013-03-13 00:30:00,46.7,46.7,30.03,NE,53,0.0,0.0,100,0.00,,,0.00,Wunderground v.1.12,2013-03-13 07:30:00,
2013-03-13 00:40:00,46.4,46.4,30.03,NE,53,0.0,0.0,100,0.00,,,0.00,Wunderground v.1.12,2013-03-13 07:40:00,
2013-03-13 00:50:00,46.4,46.4,30.03,NE,53,0.0,0.0,100,0.00,,,0.00,Wunderground v.1.12,2013-03-13 07:50:00,
2013-03-13 01:00:00,46.1,46.1,30.03,NE,53,0.0,0.0,100,0.00,,,0.00,Wunderground v.1.12,2013-03-13 08:00:00,
2013-03-13 01:10:00,46.1,46.1,30.03,NE,53,0.0,0.0,100,0.00,,,0.00,Wunderground v.1.12,2013-03-13 08:10:00,
2013-03-13 01:20:00,46.0,46.0,30.02,NE,53,1.0,1.0,100,0.00,,,0.00,Wunderground v.1.12,2013-03-13 08:20:00,
2013-03-13 01:30:00,45.4,45.4,30.02,NE,53,1.0,2.0,100,0.00,,,0.00,Wunderground v.1.12,2013-03-13 08:30:00,
2013-03-13 01:40:00,45.1,45.1,30.03,NE,53,1.0,1.0,100,0.00,,,0.00,Wunderground v.1.12,2013-03-13 08:40:00,
2013-03-13 01:50:00,45.1,45.1,30.03,NE,53,1.0,1.0,100,0.00,,,0.00,Wunderground v.1.12,2013-03-13 08:50:00,
2013-03-13 02:00:00,44.8,44.8,30.03,NE,53,0.0,0.0,100,0.00,,,0.00,Wunderground v.1.12,2013-03-13 09:00:00,
2013-03-13 02:10:00,44.8,44.8,30.03,NE,53,0.0,0.0,100,0.00,,,0.00,Wunderground v.1.12,2013-03-13 09:10:00,
2013-03-13 02:20:00,44.6,44.6,30.04,NE,53,1.0,1.0,100,0.00,,,0.00,Wunderground v.1.12,2013-03-13 09:20:00,
2013-03-13 02:30:00,44.5,44.5,30.04,NE,53,0.0,0.0,100,0.00,,,0.00,Wunderground v.1.12,2013-03-13 09:30:00,
2013-03-13 02:40:00,44.5,44.5,30.04,NE,53,0.0,0.0,100,0.00,,,0.00,Wunderground v.1.12,2013-03-13 09:40:00,
2013-03-13 02:50:00,44.6,44.6,30.04,NE,53,0.0,2.0,100,0.00,,,0.00,Wunderground v.1.12,2013-03-13 09:50:00,
2013-03-13 03:00:00,44.5,44.5,30.04,NE,55,2.0,3.0,100,0.00,,,0.00,Wunderground v.1.12,2013-03-13 10:00:00,
2013-03-13 03:10:00,44.3,44.3,30.04,NE,55,1.0,1.0,100,0.00,,,0.00,Wunderground v.1.12,2013-03-13 10:10:00,
2013-03-13 03:20:00,44.3,44.3,30.04,NE,54,0.0,0.0,100,0.00,,,0.00,Wunderground v.1.12,2013-03-13 10:20:00,
2013-03-13 03:30:00,44.3,44.3,30.04,NE,55,0.0,0.0,100,0.00,,,0.00,Wunderground v.1.12,2013-03-13 10:30:00,
2013-03-13 03:40:00,44.3,44.3,30.04,NE,55,0.0,0.0,100,0.00,,,0.00,Wunderground v.1.12,2013-03-13 10:40:00,
2013-03-13 03:50:00,44.1,44.1,30.04,NE,55,0.0,0.0,100,0.00,,,0.00,Wunderground v.1.12,2013-03-13 10:50:00,
2013-03-13 04:00:00,44.1,44.1,30.04,NE,55,0.0,0.0,100,0.00,,,0.00,Wunderground v.1.12,2013-03-13 11:00:00,
2013-03-13 04:10:00,43.6,43.6,30.04,NE,55,0.0,0.0,100,0.00,,,0.00,Wunderground v.1.12,2013-03-13 11:10:00,
2013-03-13 04:20:00,43.2,43.2,30.04,NE,55,1.0,1.0,100,0.00,,,0.00,Wunderground v.1.12,2013-03-13 11:20:00,
2013-03-13 04:30:00,42.9,42.9,30.04,NE,55,1.0,1.0,100,0.00,,,0.00,Wunderground v.1.12,2013-03-13 11:30:00,
2013-03-13 04:40:00,42.9,42.9,30.04,NE,55,0.0,0.0,100,0.00,,,0.00,Wunderground v.1.12,2013-03-13 11:40:00,
2013-03-13 04:50:00,42.9,42.9,30.04,NE,55,0.0,2.0,100,0.00,,,0.00,Wunderground v.1.12,2013-03-13 11:50:00,
2013-03-13 05:00:00,42.6,42.6,30.04,NE,55,0.0,0.0,100,0.00,,,0.00,Wunderground v.1.12,2013-03-13 12:00:00,
2013-03-13 05:10:00,41.8,41.8,30.03,SE,132,1.0,1.0,100,0.00,,,0.00,Wunderground v.1.12,2013-03-13 12:10:00,
2013-03-13 05:20:00,41.6,41.6,30.03,ESE,115,0.0,2.0,100,0.00,,,0.00,Wunderground v.1.12,2013-03-13 12:20:00,
2013-03-13 05:30:00,41.1,41.1,30.03,ESE,114,0.0,0.0,100,0.00,,,0.00,Wunderground v.1.12,2013-03-13 12:30:00,
2013-03-13 05:40:00,40.6,40.6,30.02,ESE,114,0.0,0.0,100,0.00,,,0.00,Wunderground v.1.12,2013-03-13 12:40:00,
2013-03-13 05:50:00,40.3,40.3,30.03,ESE,113,0.0,0.0,100,0.00,,,0.00,Wunderground v.1.12,2013-03-13 12:50:00,
2013-03-13 06:00:00,40.2,40.2,30.03,ESE,114,0.0,0.0,100,0.00,,,0.00,Wunderground v.1.12,2013-03-13 13:00:00,
2013-03-13 06:10:00,39.9,39.9,30.04,ESE,114,0.0,0.0,100,0.00,,,0.00,Wunderground v.1.12,2013-03-13 13:10:00,
2013-03-13 06:20:00,39.5,39.5,30.04,ESE,113,0.0,0.0,100,0.00,,,0.00,Wunderground v.1.12,2013-03-13 13:20:00,
2013-03-13 06:30:00,39.5,39.5,30.04,ESE,114,0.0,0.0,100,0.00,,,0.00,Wunderground v.1.12,2013-03-13 13:30:00,
2013-03-13 06:40:00,39.5,39.5,30.04,ESE,114,0.0,0.0,100,0.00,,,0.00,Wunderground v.1.12,2013-03-13 13:40:00,
2013-03-13 06:50:00,39.8,39.8,30.04,ESE,114,0.0,0.0,100,0.00,,,0.00,Wunderground v.1.12,2013-03-13 13:50:00,
2013-03-13 07:00:00,39.6,39.6,30.04,ESE,114,0.0,0.0,100,0.00,,,0.00,Wunderground v.1.12,2013-03-13 14:00:00,
2013-03-13 07:10:00,39.2,39.2,30.04,ESE,113,0.0,0.0,100,0.00,,,0.00,Wunderground v.1.12,2013-03-13 14:10:00,
2013-03-13 07:20:00,38.9,38.9,30.04,ESE,113,0.0,0.0,100,0.00,,,0.00,Wunderground v.1.12,2013-03-13 14:20:00,
2013-03-13 07:30:00,38.8,38.8,30.04,ESE,113,0.0,0.0,100,0.00,,,0.00,Wunderground v.1.12,2013-03-13 14:30:00,
2013-03-13 07:40:00,38.8,38.8,30.05,ESE,114,0.0,0.0,100,0.00,,,0.00,Wunderground v.1.12,2013-03-13 14:40:00,
2013-03-13 07:50:00,38.8,38.8,30.05,ESE,114,0.0,0.0,100,0.00,,,0.00,Wunderground v.1.12,2013-03-13 14:50:00,
2013-03-13 08:00:00,38.8,38.8,30.05,ESE,113,0.0,0.0,100,0.00,,,0.00,Wunderground v.1.12,2013-03-13 15:00:00,
2013-03-13 08:10:00,38.8,38.8,30.05,ESE,113,0.0,0.0,100,0.00,,,0.00,Wunderground v.1.12,2013-03-13 15:10:00,
2013-03-13 08:20:00,39.2,39.2,30.04,ESE,113,0.0,0.0,100,0.00,,,0.00,Wunderground v.1.12,2013-03-13 15:20:00,
2013-03-13 08:30:00,39.5,39.5,30.04,ESE,114,0.0,0.0,100,0.00,,,0.00,Wunderground v.1.12,2013-03-13 15:30:00,
2013-03-13 08:40:00,40.3,40.3,30.04,ESE,114,0.0,0.0,100,0.00,,,0.00,Wunderground v.1.12,2013-03-13 15:40:00,
2013-03-13 08:50:00,42.8,42.8,30.04,ESE,113,0.0,0.0,100,0.00,,,0.00,Wunderground v.1.12,2013-03-13 15:50:00,
2013-03-13 09:00:00,43.9,43.9,30.04,ESE,114,0.0,0.0,100,0.00,,,0.00,Wunderground v.1.12,2013-03-13 16:00:00,
2013-03-13 09:10:00,44.9,44.9,30.05,ESE,114,0.0,0.0,100,0.00,,,0.00,Wunderground v.1.12,2013-03-13 16:10:00,
2013-03-13 09:20:00,46.1,46.1,30.05,ESE,114,0.0,0.0,100,0.00,,,0.00,Wunderground v.1.12,2013-03-13 16:20:00,
2013-03-13 09:30:00,47.6,47.6,30.05,ESE,113,0.0,0.0,100,0.00,,,0.00,Wunderground v.1.12,2013-03-13 16:30:00,
2013-03-13 09:40:00,49.1,49.1,30.05,ESE,114,0.0,0.0,100,0.00,,,0.00,Wunderground v.1.12,2013-03-13 16:40:00,
2013-03-13 09:50:00,50.4,50.4,30.05,ESE,113,0.0,0.0,100,0.00,,,0.00,Wunderground v.1.12,2013-03-13 16:50:00,
2013-03-13 10:00:00,51.9,51.9,30.05,ESE,114,0.0,0.0,100,0.00,,,0.00,Wunderground v.1.12,2013-03-13 17:00:00,
2013-03-13 10:10:00,53.5,53.5,30.05,ESE,114,0.0,0.0,100,0.00,,,0.00,Wunderground v.1.12,2013-03-13 17:10:00,
2013-03-13 10:20:00,55.3,55.3,30.05,ESE,114,0.0,0.0,100,0.00,,,0.00,Wunderground v.1.12,2013-03-13 17:20:00,
2013-03-13 10:30:00,55.0,55.0,30.05,NNW,333,0.0,0.0,100,0.00,,,0.00,Wunderground v.1.12,2013-03-13 17:30:00,
2013-03-13 10:40:00,56.5,56.5,30.06,North,360,0.0,0.0,100,0.00,,,0.00,Wunderground v.1.12,2013-03-13 17:40:00,
2013-03-13 10:50:00,58.1,58.1,30.06,North,360,0.0,0.0,100,0.00,,,0.00,Wunderground v.1.12,2013-03-13 17:50:00,
2013-03-13 11:00:00,58.9,58.9,30.06,NE,47,1.0,1.0,100,0.00,,,0.00,Wunderground v.1.12,2013-03-13 18:00:00,
2013-03-13 11:10:00,60.4,60.4,30.05,NE,53,0.0,0.0,100,0.00,,,0.00,Wunderground v.1.12,2013-03-13 18:10:00,
2013-03-13 11:20:00,63.5,63.5,30.05,NE,51,0.0,0.0,100,0.00,,,0.00,Wunderground v.1.12,2013-03-13 18:20:00,
2013-03-13 11:30:00,65.8,65.8,30.05,SSW,192,0.0,0.0,100,0.00,,,0.00,Wunderground v.1.12,2013-03-13 18:30:00,
2013-03-13 11:40:00,67.8,67.8,30.04,SSW,192,0.0,0.0,100,0.00,,,0.00,Wunderground v.1.12,2013-03-13 18:40:00,
2013-03-13 11:50:00,68.9,68.9,30.04,SSW,212,0.0,0.0,100,0.00,,,0.00,Wunderground v.1.12,2013-03-13 18:50:00,
2013-03-13 12:00:00,70.1,70.1,30.04,SSW,200,0.0,0.0,100,0.00,,,0.00,Wunderground v.1.12,2013-03-13 19:00:00,
2013-03-13 12:10:00,72.0,72.0,30.04,WSW,256,0.0,0.0,100,0.00,,,0.00,Wunderground v.1.12,2013-03-13 19:10:00,
2013-03-13 12:20:00,74.4,74.4,30.03,South,188,0.0,0.0,100,0.00,,,0.00,Wunderground v.1.12,2013-03-13 19:20:00,
2013-03-13 12:30:00,74.0,74.0,30.03,NNE,32,3.0,7.0,100,0.00,,,0.00,Wunderground v.1.12,2013-03-13 19:30:00,
2013-03-13 12:40:00,73.9,73.9,30.03,NE,55,5.0,5.0,100,0.00,,,0.00,Wunderground v.1.12,2013-03-13 19:40:00,
2013-03-13 12:50:00,73.7,73.7,30.03,North,351,6.0,6.0,100,0.00,,,0.00,Wunderground v.1.12,2013-03-13 19:50:00,
2013-03-13 13:00:00,73.9,73.9,30.03,NE,55,6.0,8.0,100,0.00,,,0.00,Wunderground v.1.12,2013-03-13 20:00:00,
2013-03-13 13:10:00,74.4,74.4,30.03,NE,40,6.0,9.0,100,0.00,,,0.00,Wunderground v.1.12,2013-03-13 20:10:00,
2013-03-13 13:20:00,74.7,74.7,30.02,NNE,32,5.0,7.0,100,0.00,,,0.00,Wunderground v.1.12,2013-03-13 20:20:00,
2013-03-13 13:30:00,75.6,75.6,30.02,NE,46,4.0,4.0,100,0.00,,,0.00,Wunderground v.1.12,2013-03-13 20:30:00,
2013-03-13 13:40:00,75.6,75.6,30.02,NNE,27,3.0,5.0,100,0.00,,,0.00,Wunderground v.1.12,2013-03-13 20:40:00,
2013-03-13 13:50:00,75.4,75.4,30.02,NE,46,4.0,4.0,100,0.00,,,0.00,Wunderground v.1.12,2013-03-13 20:50:00,
2013-03-13 14:00:00,76.0,76.0,30.02,NE,39,2.0,4.0,100,0.00,,,0.00,Wunderground v.1.12,2013-03-13 21:00:00,
2013-03-13 14:10:00,76.1,76.1,30.01,ENE,57,2.0,2.0,100,0.00,,,0.00,Wunderground v.1.12,2013-03-13 21:10:00,
2013-03-13 14:20:00,76.3,76.3,30.01,NE,41,2.0,2.0,100,0.00,,,0.00,Wunderground v.1.12,2013-03-13 21:20:00,
2013-03-13 14:30:00,76.7,76.7,30.01,NNE,17,3.0,3.0,100,0.00,,,0.00,Wunderground v.1.12,2013-03-13 21:30:00,
2013-03-13 14:40:00,76.7,76.7,30.00,NNE,31,4.0,4.0,100,0.00,,,0.00,Wunderground v.1.12,2013-03-13 21:40:00,
2013-03-13 14:50:00,77.0,77.0,29.99,NE,42,2.0,4.0,100,0.00,,,0.00,Wunderground v.1.12,2013-03-13 21:50:00,
2013-03-13 15:00:00,77.2,77.2,29.99,NNE,20,3.0,4.0,100,0.00,,,0.00,Wunderground v.1.12,2013-03-13 22:00:00,
2013-03-13 15:10:00,77.2,77.2,29.99,ENE,59,3.0,3.0,100,0.00,,,0.00,Wunderground v.1.12,2013-03-13 22:10:00,
2013-03-13 15:20:00,77.9,77.9,29.99,WNW,295,2.0,2.0,100,0.00,,,0.00,Wunderground v.1.12,2013-03-13 22:20:00,
2013-03-13 15:30:00,78.3,78.3,29.99,WNW,290,2.0,2.0,100,0.00,,,0.00,Wunderground v.1.12,2013-03-13 22:30:00,
2013-03-13 15:40:00,79.0,79.0,29.99,West,277,1.0,2.0,100,0.00,,,0.00,Wunderground v.1.12,2013-03-13 22:40:00,
2013-03-13 15:50:00,79.6,79.6,29.98,WNW,293,1.0,1.0,100,0.00,,,0.00,Wunderground v.1.12,2013-03-13 22:50:00,
2013-03-13 16:00:00,79.4,79.4,29.98,West,280,1.0,4.0,100,0.00,,,0.00,Wunderground v.1.12,2013-03-13 23:00:00,
2013-03-13 16:10:00,79.0,79.0,29.98,West,281,1.0,2.0,100,0.00,,,0.00,Wunderground v.1.12,2013-03-13 23:10:00,
2013-03-13 16:20:00,79.4,79.4,29.97,WNW,290,1.0,3.0,100,0.00,,,0.00,Wunderground v.1.12,2013-03-13 23:20:00,
2013-03-13 16:30:00,80.1,80.1,29.97,West,280,1.0,2.0,100,0.00,,,0.00,Wunderground v.1.12,2013-03-13 23:30:00,
2013-03-13 16:40:00,79.8,79.8,29.97,WNW,298,1.0,3.0,100,0.00,,,0.00,Wunderground v.1.12,2013-03-13 23:40:00,
2013-03-13 16:50:00,79.6,79.6,29.97,West,279,1.0,1.0,100,0.00,,,0.00,Wunderground v.1.12,2013-03-13 23:50:00,
2013-03-13 17:00:00,78.3,78.3,29.97,WNW,284,3.0,5.0,100,0.00,,,0.00,Wunderground v.1.12,2013-03-14 00:00:00,
2013-03-13 17:10:00,75.8,75.8,29.96,WNW,295,4.0,4.0,100,0.00,,,0.00,Wunderground v.1.12,2013-03-14 00:10:00,
2013-03-13 17:20:00,75.3,75.3,29.97,WNW,292,1.0,2.0,100,0.00,,,0.00,Wunderground v.1.12,2013-03-14 00:20:00,
2013-03-13 17:30:00,73.5,73.5,29.97,WNW,289,3.0,5.0,100,0.00,,,0.00,Wunderground v.1.12,2013-03-14 00:30:00,
2013-03-13 17:40:00,72.0,72.0,29.97,WNW,293,2.0,5.0,100,0.00,,,0.00,Wunderground v.1.12,2013-03-14 00:40:00,
2013-03-13 17:50:00,68.4,68.4,29.98,West,278,4.0,5.0,100,0.00,,,0.00,Wunderground v.1.12,2013-03-14 00:50:00,
2013-03-13 18:00:00,65.8,65.8,29.98,WNW,302,3.0,3.0,100,0.00,,,0.00,Wunderground v.1.12,2013-03-14 01:00:00,
2013-03-13 18:10:00,64.0,64.0,29.99,SW,225,2.0,2.0,100,0.00,,,0.00,Wunderground v.1.12,2013-03-14 01:10:00,
2013-03-13 18:20:00,63.1,63.1,29.99,SW,234,1.0,1.0,100,0.00,,,0.00,Wunderground v.1.12,2013-03-14 01:20:00,
2013-03-13 18:30:00,62.0,62.0,29.99,West,265,0.0,0.0,100,0.00,,,0.00,Wunderground v.1.12,2013-03-14 01:30:00,
2013-03-13 18:40:00,61.2,61.2,29.99,West,266,0.0,0.0,100,0.00,,,0.00,Wunderground v.1.12,2013-03-14 01:40:00,
2013-03-13 18:50:00,60.5,60.5,29.99,West,266,0.0,0.0,100,0.00,,,0.00,Wunderground v.1.12,2013-03-14 01:50:00,
2013-03-13 19:00:00,59.6,59.6,29.99,West,266,0.0,0.0,100,0.00,,,0.00,Wunderground v.1.12,2013-03-14 02:00:00,
2013-03-13 19:10:00,58.9,58.9,29.99,West,266,0.0,0.0,100,0.00,,,0.00,Wunderground v.1.12,2013-03-14 02:10:00,
2013-03-13 19:20:00,57.6,57.6,29.99,West,266,0.0,0.0,100,0.00,,,0.00,Wunderground v.1.12,2013-03-14 02:20:00,
2013-03-13 19:30:00,56.3,56.3,29.99,West,266,0.0,0.0,100,0.00,,,0.00,Wunderground v.1.12,2013-03-14 02:30:00,
2013-03-13 19:40:00,55.0,55.0,29.99,West,267,0.0,0.0,100,0.00,,,0.00,Wunderground v.1.12,2013-03-14 02:40:00,
2013-03-13 19:50:00,54.1,54.1,29.99,West,266,0.0,0.0,100,0.00,,,0.00,Wunderground v.1.12,2013-03-14 02:50:00,
2013-03-13 20:00:00,53.3,53.3,29.99,West,266,0.0,0.0,100,0.00,,,0.00,Wunderground v.1.12,2013-03-14 03:00:00,
2013-03-13 20:10:00,52.8,52.8,29.99,West,266,0.0,0.0,100,0.00,,,0.00,Wunderground v.1.12,2013-03-14 03:10:00,
2013-03-13 20:20:00,52.0,52.0,29.99,West,266,0.0,0.0,100,0.00,,,0.00,Wunderground v.1.12,2013-03-14 03:20:00,
2013-03-13 20:30:00,51.4,51.4,29.99,West,266,0.0,0.0,100,0.00,,,0.00,Wunderground v.1.12,2013-03-14 03:30:00,
2013-03-13 20:40:00,51.0,51.0,29.99,West,266,0.0,0.0,100,0.00,,,0.00,Wunderground v.1.12,2013-03-14 03:40:00,
2013-03-13 20:50:00,50.4,50.4,30.00,West,266,0.0,0.0,100,0.00,,,0.00,Wunderground v.1.12,2013-03-14 03:50:00,
2013-03-13 21:00:00,50.4,50.4,30.00,North,351,0.0,0.0,100,0.00,,,0.00,Wunderground v.1.12,2013-03-14 04:00:00,
2013-03-13 21:10:00,50.1,50.1,30.01,North,355,1.0,1.0,100,0.00,,,0.00,Wunderground v.1.12,2013-03-14 04:10:00,
2013-03-13 21:13:00,50.1,50.1,30.01,North,0,0.0,2.0,100,0.00,,,-99.99,WeatherLink 5.8.2,2013-03-14 04:13:00,
2013-03-13 21:20:00,49.6,49.6,30.01,North,355,0.0,0.0,100,0.00,,,0.00,Wunderground v.1.12,2013-03-14 04:20:00,
2013-03-13 21:30:00,49.5,49.5,30.01,North,351,0.0,0.0,100,0.00,,,0.00,Wunderground v.1.12,2013-03-14 04:30:00,
2013-03-13 21:40:00,49.1,49.1,30.01,North,355,0.0,0.0,100,0.00,,,0.00,Wunderground v.1.12,2013-03-14 04:40:00,
2013-03-13 21:50:00,48.8,48.8,30.01,North,351,0.0,0.0,100,0.00,,,0.00,Wunderground v.1.12,2013-03-14 04:50:00,
2013-03-13 22:00:00,48.3,48.3,30.01,North,351,0.0,0.0,100,0.00,,,0.00,Wunderground v.1.12,2013-03-14 05:00:00,
2013-03-13 22:10:00,47.9,47.9,30.01,North,351,0.0,0.0,100,0.00,,,0.00,Wunderground v.1.12,2013-03-14 05:10:00,
2013-03-13 22:20:00,47.1,47.1,30.02,North,351,0.0,0.0,100,0.00,,,0.00,Wunderground v.1.12,2013-03-14 05:20:00,
2013-03-13 22:30:00,46.5,46.5,30.02,North,351,0.0,0.0,100,0.00,,,0.00,Wunderground v.1.12,2013-03-14 05:30:00,
2013-03-13 22:40:00,46.7,46.7,30.02,North,351,0.0,0.0,100,0.00,,,0.00,Wunderground v.1.12,2013-03-14 05:40:00,
2013-03-13 22:50:00,46.2,46.2,30.02,North,351,0.0,0.0,100,0.00,,,0.00,Wunderground v.1.12,2013-03-14 05:50:00,
2013-03-13 23:00:00,46.0,46.0,30.02,North,351,0.0,0.0,100,0.00,,,0.00,Wunderground v.1.12,2013-03-14 06:00:00,
2013-03-13 23:10:00,45.8,45.8,30.02,North,351,0.0,0.0,100,0.00,,,0.00,Wunderground v.1.12,2013-03-14 06:10:00,
2013-03-13 23:20:00,45.5,45.5,30.01,North,351,0.0,0.0,100,0.00,,,0.00,Wunderground v.1.12,2013-03-14 06:20:00,
2013-03-13 23:30:00,45.4,45.4,30.01,North,351,0.0,0.0,100,0.00,,,0.00,Wunderground v.1.12,2013-03-14 06:30:00,
2013-03-13 23:40:00,45.4,45.4,30.01,North,351,0.0,0.0,100,0.00,,,0.00,Wunderground v.1.12,2013-03-14 06:40:00,
2013-03-13 23:50:00,45.5,45.5,30.02,North,351,0.0,0.0,100,0.00,,,0.00,Wunderground v.1.12,2013-03-14 06:50:00,